• In Österreich
  • Länderverzeichnis
  • Für 7 Tage
  • Wassertemperatur
  • Satellitenkarten
  • Wetterkarte
  • News
  • Widgets
  • user-avatar
    Anmelden

    Stündliche Wetter Holhol

    Heute, 25 Juni, Montag

    Zeit Temperatur Niederschläge Wind Luftdruck Luftfeuchtigkeit
    00:00 +35°C° 0 mm 3 m/S 710 mmHg 38%
    01:00 +35°C° 0 mm 2 m/S 710 mmHg 39%
    02:00 +35°C° 0 mm 2 m/S 710 mmHg 39%
    03:00 +35°C° 0 mm 2 m/S 709 mmHg 40%
    04:00 +33°C° 0 mm 1 m/S 710 mmHg 41%
    05:00 +33°C° 0 mm 1 m/S 710 mmHg 42%
    06:00 +32°C° 0 mm 1 m/S 710 mmHg 43%
    07:00 +33°C° 0 mm 1 m/S 710 mmHg 40%
    08:00 +35°C° 0 mm 2 m/S 711 mmHg 36%
    09:00 +36°C° 0 mm 2 m/S 711 mmHg 33%
    10:00 +37°C° 0 mm 2 m/S 711 mmHg 30%
    11:00 +39°C° 0 mm 3 m/S 711 mmHg 26%
    12:00 +40°C° 0 mm 3 m/S 711 mmHg 23%
    13:00 +40°C° 0 mm 3 m/S 710 mmHg 24%
    14:00 +40°C° 0 mm 3 m/S 710 mmHg 25%
    15:00 +41°C° 0 mm 4 m/S 709 mmHg 26%
    16:00 +40°C° 0 mm 4 m/S 709 mmHg 30%
    17:00 +40°C° 0 mm 4 m/S 709 mmHg 33%
    18:00 +38°C° 0 mm 4 m/S 709 mmHg 37%
    19:00 +37°C° 0 mm 4 m/S 709 mmHg 41%
    20:00 +36°C° 0 mm 4 m/S 709 mmHg 45%
    21:00 +35°C° 0 mm 3 m/S 709 mmHg 49%
    22:00 +35°C° 0 mm 3 m/S 710 mmHg 48%
    23:00 +35°C° 0 mm 3 m/S 710 mmHg 47%

    Morgen, 26 Juni, Dienstag

    Zeit Temperatur Niederschläge Wind Luftdruck Luftfeuchtigkeit
    00:00 +34°C° 0 mm 2 m/S 710 mmHg 46%
    01:00 +34°C° 0 mm 2 m/S 710 mmHg 47%
    02:00 +34°C° 0 mm 2 m/S 709 mmHg 47%
    03:00 +33°C° 0 mm 1 m/S 709 mmHg 47%
    04:00 +32°C° 0 mm 1 m/S 709 mmHg 47%
    05:00 +32°C° 0 mm 1 m/S 710 mmHg 47%
    06:00 +30°C° 0 mm 0 m/S 710 mmHg 47%
    07:00 +33°C° 0 mm 1 m/S 710 mmHg 41%
    08:00 +35°C° 0 mm 2 m/S 711 mmHg 34%
    09:00 +37°C° 0 mm 2 m/S 711 mmHg 28%
    10:00 +38°C° 0 mm 3 m/S 711 mmHg 26%
    11:00 +39°C° 0 mm 3 m/S 711 mmHg 24%
    12:00 +40°C° 0 mm 3 m/S 711 mmHg 22%
    13:00 +40°C° 0 mm 3 m/S 710 mmHg 22%
    14:00 +40°C° 0 mm 3 m/S 710 mmHg 22%
    15:00 +40°C° 0 mm 3 m/S 709 mmHg 22%
    16:00 +40°C° 0 mm 3 m/S 709 mmHg 24%
    17:00 +39°C° 0 mm 3 m/S 709 mmHg 25%
    18:00 +39°C° 0 mm 3 m/S 709 mmHg 27%
    19:00 +38°C° 0 mm 3 m/S 709 mmHg 30%
    20:00 +37°C° 0 mm 3 m/S 709 mmHg 33%
    21:00 +36°C° 0 mm 3 m/S 710 mmHg 36%
    22:00 +36°C° 0 mm 3 m/S 710 mmHg 36%
    23:00 +35°C° 0 mm 3 m/S 710 mmHg 36%

    übermorgen, 27 Juni, Mittwoch

    Zeit Temperatur Niederschläge Wind Luftdruck Luftfeuchtigkeit
    00:00 +35°C° 0 mm 2 m/S 710 mmHg 37%
    01:00 +35°C° 0 mm 2 m/S 710 mmHg 36%
    02:00 +35°C° 0 mm 2 m/S 710 mmHg 36%
    03:00 +34°C° 0 mm 2 m/S 709 mmHg 35%
    04:00 +34°C° 0 mm 2 m/S 710 mmHg 35%
    05:00 +34°C° 0 mm 3 m/S 710 mmHg 35%
    06:00 +34°C° 0 mm 3 m/S 710 mmHg 36%
    07:00 +35°C° 0 mm 4 m/S 711 mmHg 33%
    08:00 +36°C° 0 mm 5 m/S 711 mmHg 30%
    09:00 +37°C° 0 mm 5 m/S 712 mmHg 27%
    10:00 +39°C° 0 mm 5 m/S 712 mmHg 26%
    11:00 +40°C° 0 mm 5 m/S 711 mmHg 24%
    12:00 +41°C° 0 mm 5 m/S 711 mmHg 22%
    13:00 +42°C° 0 mm 4 m/S 710 mmHg 21%
    14:00 +42°C° 0 mm 4 m/S 710 mmHg 20%
    15:00 +42°C° 0 mm 3 m/S 709 mmHg 19%
    16:00 +42°C° 0 mm 4 m/S 709 mmHg 21%
    17:00 +41°C° 0 mm 4 m/S 709 mmHg 22%
    18:00 +41°C° 0 mm 4 m/S 708 mmHg 24%
    19:00 +40°C° 0 mm 4 m/S 709 mmHg 26%
    20:00 +38°C° 0 mm 4 m/S 709 mmHg 28%
    21:00 +37°C° 0 mm 3 m/S 710 mmHg 29%
    22:00 +37°C° 0 mm 3 m/S 710 mmHg 30%
    23:00 +37°C° 0 mm 3 m/S 710 mmHg 31%

    28 Juni, Donnerstag

    Zeit Temperatur Niederschläge Wind Luftdruck Luftfeuchtigkeit
    00:00 +36°C° 0 mm 3 m/S 710 mmHg 32%
    01:00 +36°C° 0 mm 2 m/S 709 mmHg 32%
    02:00 +35°C° 0 mm 2 m/S 709 mmHg 33%
    03:00 +35°C° 0 mm 2 m/S 709 mmHg 33%
    04:00 +35°C° 0 mm 2 m/S 709 mmHg 33%
    05:00 +35°C° 0 mm 3 m/S 709 mmHg 32%
    06:00 +35°C° 0 mm 3 m/S 710 mmHg 32%
    07:00 +36°C° 0 mm 4 m/S 710 mmHg 30%
    08:00 +37°C° 0 mm 5 m/S 711 mmHg 27%
    09:00 +39°C° 0 mm 6 m/S 711 mmHg 24%
    10:00 +40°C° 0 mm 6 m/S 711 mmHg 23%
    11:00 +41°C° 0 mm 5 m/S 711 mmHg 21%
    12:00 +42°C° 0 mm 5 m/S 710 mmHg 19%
    13:00 +42°C° 0 mm 5 m/S 710 mmHg 19%
    14:00 +43°C° 0 mm 4 m/S 709 mmHg 18%
    15:00 +43°C° 0 mm 3 m/S 708 mmHg 17%
    16:00 +43°C° 0 mm 4 m/S 708 mmHg 19%
    17:00 +42°C° 0 mm 4 m/S 708 mmHg 20%
    18:00 +42°C° 0 mm 5 m/S 708 mmHg 22%
    19:00 +41°C° 0 mm 4 m/S 708 mmHg 23%
    20:00 +40°C° 0 mm 4 m/S 709 mmHg 25%
    21:00 +38°C° 0 mm 4 m/S 709 mmHg 26%
    22:00 +38°C° 0 mm 3 m/S 709 mmHg 27%
    23:00 +37°C° 0 mm 3 m/S 709 mmHg 28%

    29 Juni, Freitag

    Zeit Temperatur Niederschläge Wind Luftdruck Luftfeuchtigkeit
    00:00 +37°C° 0 mm 2 m/S 709 mmHg 29%
    01:00 +36°C° 0 mm 2 m/S 709 mmHg 30%
    02:00 +36°C° 0 mm 2 m/S 708 mmHg 31%
    03:00 +34°C° 0 mm 1 m/S 708 mmHg 32%
    04:00 +35°C° 0 mm 2 m/S 708 mmHg 33%
    05:00 +35°C° 0 mm 2 m/S 709 mmHg 33%
    06:00 +35°C° 0 mm 3 m/S 709 mmHg 34%
    07:00 +36°C° 0 mm 5 m/S 709 mmHg 32%
    08:00 +38°C° 0 mm 6 m/S 710 mmHg 29%
    09:00 +39°C° 0 mm 8 m/S 710 mmHg 27%
    10:00 +40°C° 0 mm 8 m/S 710 mmHg 26%
    11:00 +41°C° 0 mm 7 m/S 709 mmHg 24%
    12:00 +43°C° 0 mm 7 m/S 709 mmHg 22%
    13:00 +42°C° 0 mm 6 m/S 708 mmHg 21%
    14:00 +43°C° 0 mm 5 m/S 707 mmHg 20%
    15:00 +43°C° 0 mm 5 m/S 707 mmHg 19%
    16:00 +43°C° 0,1 mm 4 m/S 707 mmHg 19%
    17:00 +43°C° 0,1 mm 4 m/S 707 mmHg 19%
    18:00 +43°C° 0,1 mm 3 m/S 707 mmHg 19%
    19:00 +42°C° 0,1 mm 3 m/S 707 mmHg 21%
    20:00 +41°C° 0,1 mm 4 m/S 707 mmHg 23%
    21:00 +40°C° 0,1 mm 4 m/S 708 mmHg 24%
    22:00 +39°C° 0,1 mm 3 m/S 708 mmHg 25%
    23:00 +38°C° 0,1 mm 2 m/S 708 mmHg 26%

    30 Juni, Samstag

    Zeit Temperatur Niederschläge Wind Luftdruck Luftfeuchtigkeit
    00:00 +38°C° 0,1 mm 2 m/S 708 mmHg 26%
    01:00 +37°C° 0,3 mm 2 m/S 707 mmHg 28%
    02:00 +36°C° 0,3 mm 2 m/S 707 mmHg 30%
    03:00 +36°C° 0,3 mm 3 m/S 707 mmHg 31%
    04:00 +35°C° 0 mm 4 m/S 707 mmHg 32%
    05:00 +35°C° 0 mm 5 m/S 708 mmHg 33%
    06:00 +35°C° 0 mm 6 m/S 708 mmHg 33%
    07:00 +36°C° 0 mm 7 m/S 708 mmHg 31%
    08:00 +38°C° 0 mm 8 m/S 709 mmHg 29%
    09:00 +39°C° 0 mm 9 m/S 709 mmHg 27%
    10:00 +40°C° 0 mm 9 m/S 709 mmHg 24%
    11:00 +43°C° 0 mm 9 m/S 708 mmHg 22%
    12:00 +44°C° 0 mm 8 m/S 708 mmHg 20%
    13:00 +45°C° 0 mm 7 m/S 707 mmHg 19%
    14:00 +45°C° 0 mm 6 m/S 707 mmHg 18%
    15:00 +45°C° 0 mm 5 m/S 706 mmHg 16%
    16:00 +45°C° 0,1 mm 5 m/S 706 mmHg 17%
    17:00 +44°C° 0,1 mm 4 m/S 706 mmHg 17%
    18:00 +44°C° 0,1 mm 3 m/S 706 mmHg 17%
    19:00 +43°C° 0,2 mm 4 m/S 707 mmHg 19%
    20:00 +42°C° 0,2 mm 4 m/S 707 mmHg 22%
    21:00 +41°C° 0,2 mm 5 m/S 707 mmHg 24%
    22:00 +40°C° 0,2 mm 4 m/S 707 mmHg 26%
    23:00 +38°C° 0,2 mm 3 m/S 707 mmHg 27%
    Mehr zeigen